Total_Precipitation_Accumulation
0.36 0.43 0.40 0.38 0.33 0.34 0.31 0.21 0.18 0.17 0.11 0.11 0.09 0.09 0.10 0.08 0.09 0.11 0.20 0.26 0.28 0.33 0.41 0.42 0.36 0.29 0.29 0.26 0.22 0.21 0.19 0.18 0.17 0.15 0.14 0.12 0.11 0.11 0.11 0.11 0.10 0.09 0.08
0.49 0.52 0.50 0.52 0.49 0.49 0.52 0.41 0.34 0.33 0.25 0.22 0.20 0.20 0.20 0.18 0.18 0.20 0.26 0.29 0.30 0.34 0.43 0.49 0.47 0.46 0.44 0.39 0.34 0.30 0.28 0.26 0.23 0.24 0.23 0.21 0.20 0.18 0.18 0.17 0.15 0.13 0.11
0.58 0.59 0.63 0.66 0.65 0.63 0.67 0.64 0.60 0.55 0.49 0.43 0.39 0.33 0.30 0.29 0.30 0.32 0.37 0.42 0.40 0.41 0.43 0.47 0.51 0.53 0.51 0.52 0.52 0.46 0.41 0.37 0.35 0.34 0.33 0.31 0.30 0.28 0.26 0.24 0.22 0.20 0.19
0.59 0.69 0.75 0.79 0.80 0.77 0.82 0.84 0.82 0.72 0.66 0.58 0.56 0.51 0.46 0.43 0.39 0.42 0.49 0.57 0.61 0.59 0.57 0.51 0.51 0.53 0.56 0.58 0.59 0.58 0.54 0.50 0.48 0.45 0.42 0.38 0.39 0.38 0.33 0.31 0.31 0.28 0.26
0.83 0.90 0.97 1.05 1.03 1.07 1.07 1.00 1.01 0.89 0.87 0.83 0.71 0.63 0.52 0.48 0.50 0.47 0.51 0.54 0.57 0.60 0.62 0.60 0.54 0.52 0.56 0.61 0.61 0.64 0.64 0.63 0.61 0.55 0.49 0.45 0.46 0.45 0.42 0.40 0.39 0.36 0.32
1.33 1.41 1.40 1.41 1.37 1.39 1.32 1.27 1.23 1.09 0.99 0.94 0.73 0.64 0.57 0.54 0.55 0.53 0.49 0.47 0.46 0.44 0.45 0.47 0.52 0.51 0.53 0.57 0.62 0.69 0.74 0.75 0.72 0.66 0.62 0.58 0.55 0.49 0.45 0.45 0.43 0.40 0.39
2.21 2.22 2.12 2.00 1.85 1.72 1.59 1.46 1.29 1.13 1.03 0.95 0.88 0.74 0.57 0.46 0.45 0.44 0.43 0.44 0.46 0.44 0.42 0.42 0.41 0.40 0.46 0.52 0.54 0.59 0.67 0.75 0.79 0.80 0.77 0.70 0.61 0.56 0.52 0.50 0.48 0.46 0.46
3.05 3.07 2.92 2.74 2.56 2.24 1.82 1.50 1.32 1.22 1.09 1.04 1.00 0.94 0.71 0.53 0.41 0.32 0.34 0.36 0.39 0.40 0.38 0.36 0.35 0.36 0.39 0.44 0.47 0.50 0.54 0.63 0.73 0.81 0.81 0.77 0.71 0.67 0.64 0.61 0.59 0.57 0.56
3.57 3.63 3.50 3.17 2.71 2.18 1.74 1.52 1.42 1.31 1.18 1.08 0.99 0.98 0.88 0.75 0.54 0.36 0.30 0.27 0.28 0.27 0.26 0.28 0.30 0.33 0.35 0.37 0.40 0.47 0.53 0.57 0.67 0.75 0.74 0.71 0.70 0.68 0.68 0.66 0.65 0.65 0.65
3.54 3.44 3.22 2.75 2.29 1.91 1.64 1.51 1.38 1.19 1.08 0.92 0.82 0.73 0.70 0.67 0.60 0.44 0.32 0.24 0.21 0.17 0.18 0.19 0.21 0.23 0.26 0.29 0.35 0.41 0.44 0.47 0.52 0.55 0.55 0.55 0.57 0.61 0.66 0.70 0.70 0.70 0.72
2.94 2.64 2.34 2.04 1.83 1.61 1.37 1.17 1.02 0.86 0.74 0.62 0.56 0.51 0.48 0.46 0.44 0.40 0.33 0.26 0.22 0.20 0.20 0.20 0.20 0.21 0.22 0.25 0.29 0.39 0.43 0.40 0.40 0.40 0.39 0.40 0.42 0.45 0.49 0.56 0.63 0.68 0.71
2.39 2.05 1.83 1.59 1.40 1.18 0.95 0.76 0.61 0.52 0.47 0.45 0.42 0.39 0.36 0.34 0.32 0.33 0.32 0.26 0.22 0.21 0.20 0.19 0.20 0.22 0.23 0.26 0.32 0.43 0.37 0.34 0.35 0.35 0.34 0.34 0.37 0.40 0.44 0.51 0.59 0.68 0.75
2.11 1.73 1.45 1.24 1.02 0.79 0.62 0.51 0.41 0.33 0.29 0.26 0.25 0.25 0.24 0.24 0.23 0.25 0.25 0.22 0.20 0.19 0.19 0.20 0.21 0.22 0.23 0.26 0.32 0.40 0.30 0.30 0.28 0.28 0.29 0.30 0.32 0.35 0.39 0.44 0.49 0.55 0.61
1.70 1.40 1.08 0.80 0.59 0.46 0.39 0.33 0.29 0.26 0.21 0.19 0.18 0.17 0.16 0.15 0.13 0.14 0.17 0.18 0.21 0.21 0.20 0.21 0.21 0.21 0.23 0.26 0.34 0.36 0.25 0.28 0.26 0.25 0.25 0.25 0.25 0.27 0.30 0.33 0.36 0.38 0.40
1.13 0.89 0.68 0.53 0.42 0.33 0.26 0.23 0.21 0.18 0.15 0.14 0.13 0.13 0.13 0.12 0.12 0.12 0.13 0.16 0.21 0.26 0.27 0.24 0.23 0.22 0.22 0.23 0.30 0.23 0.19 0.24 0.22 0.21 0.21 0.20 0.21 0.22 0.24 0.26 0.29 0.31 0.32
0.62 0.52 0.45 0.38 0.33 0.28 0.24 0.20 0.17 0.15 0.13 0.13 0.12 0.12 0.13 0.14 0.15 0.16 0.17 0.18 0.19 0.23 0.26 0.23 0.21 0.20 0.21 0.21 0.24 0.18 0.18 0.22 0.18 0.18 0.18 0.19 0.18 0.18 0.18 0.21 0.24 0.26 0.26
0.40 0.36 0.33 0.30 0.27 0.24 0.22 0.20 0.19 0.17 0.17 0.18 0.18 0.18 0.19 0.19 0.18 0.17 0.16 0.16 0.15 0.18 0.23 0.23 0.21 0.20 0.21 0.22 0.21 0.19 0.19 0.20 0.19 0.19 0.19 0.18 0.17 0.16 0.17 0.19 0.20 0.21 0.21
0.34 0.32 0.29 0.27 0.25 0.24 0.23 0.22 0.21 0.21 0.20 0.21 0.20 0.19 0.18 0.17 0.18 0.18 0.17 0.17 0.17 0.19 0.21 0.21 0.18 0.16 0.16 0.16 0.17 0.18 0.15 0.14 0.15 0.15 0.16 0.16 0.15 0.16 0.16 0.15 0.14 0.13 0.12
0.35 0.32 0.29 0.28 0.27 0.26 0.24 0.22 0.21 0.20 0.18 0.17 0.16 0.15 0.13 0.12 0.12 0.11 0.11 0.10 0.09 0.10 0.13 0.16 0.15 0.13 0.12 0.13 0.18 0.18 0.17 0.21 0.15 0.15 0.14 0.13 0.12 0.11 0.09 0.08 0.08 0.08 0.07
0.34 0.34 0.32 0.30 0.27 0.23 0.20 0.16 0.14 0.12 0.10 0.08 0.07 0.06 0.05 0.05 0.07 0.08 0.08 0.08 0.09 0.11 0.13 0.17 0.17 0.15 0.14 0.14 0.23 0.25 0.21 0.21 0.18 0.12 0.12 0.11 0.09 0.07 0.06 0.06 0.06 0.05 0.05
0.28 0.25 0.21 0.17 0.13 0.10 0.08 0.06 0.04 0.04 0.03 0.02 0.02 0.02 0.02 0.03 0.05 0.06 0.06 0.08 0.13 0.17 0.18 0.21 0.20 0.18 0.16 0.21 0.26 0.26 0.23 0.19 0.16 0.13 0.18 0.19 0.20 0.21 0.21 0.16 0.10 0.06 0.04
0.16 0.12 0.09 0.07 0.05 0.03 0.02 0.02 0.01 0.01 0.02 0.02 0.02 0.03 0.02 0.03 0.02 0.02 0.05 0.10 0.16 0.19 0.20 0.23 0.23 0.25 0.25 0.27 0.29 0.27 0.28 0.29 0.28 0.22 0.26 0.23 0.23 0.26 0.26 0.25 0.18 0.09 0.06
0.09 0.07 0.05 0.03 0.03 0.01 0.00 0.00 0.00 0.01 0.02 0.03 0.04 0.05 0.03 0.02 0.03 0.05 0.06 0.07 0.09 0.10 0.15 0.23 0.30 0.31 0.33 0.35 0.37 0.35 0.37 0.39 0.37 0.31 0.38 0.35 0.26 0.26 0.21 0.17 0.15 0.11 0.09
0.07 0.05 0.04 0.04 0.04 0.02 0.00 0.00 0.00 0.01 0.03 0.04 0.04 0.05 0.05 0.06 0.06 0.06 0.05 0.06 0.11 0.14 0.14 0.16 0.26 0.29 0.28 0.29 0.33 0.36 0.39 0.42 0.43 0.42 0.47 0.46 0.29 0.26 0.21 0.26 0.23 0.15 0.11
0.06 0.05 0.04 0.05 0.07 0.06 0.01 0.00 0.00 0.01 0.03 0.04 0.04 0.03 0.04 0.07 0.07 0.07 0.07 0.12 0.18 0.22 0.12 0.10 0.16 0.22 0.25 0.28 0.29 0.34 0.48 0.59 0.54 0.42 0.45 0.50 0.39 0.31 0.26 0.30 0.27 0.19 0.15
0.06 0.05 0.04 0.05 0.07 0.08 0.02 0.00 0.00 0.01 0.03 0.04 0.06 0.08 0.06 0.06 0.05 0.05 0.06 0.15 0.23 0.25 0.23 0.27 0.35 0.39 0.41 0.48 0.45 0.45 0.59 0.65 0.61 0.57 0.50 0.52 0.48 0.45 0.42 0.31 0.30 0.29 0.28